• In Belarus
  • List of Countries
  • For 7 days
  • Water Temperature
  • Satellite Maps
  • Weather Map
  • Weather Widgets
  • user-avatar
    Login

    Hourly Weather Saratov

    Today, 18 February, Sunday

    Time Temperature Precipitation Wind Pressure Humidity
    00:00 -12°C° 0 mm 5 mps 771 mmHg 95%
    01:00 -12°C° 0 mm 5 mps 771 mmHg 95%
    02:00 -11°C° 0 mm 4 mps 770 mmHg 95%
    03:00 -15°C° 0 mm 4 mps 770 mmHg 93%
    04:00 -15°C° 0 mm 4 mps 770 mmHg 94%
    05:00 -16°C° 0 mm 4 mps 770 mmHg 94%
    06:00 -16°C° 0 mm 4 mps 769 mmHg 95%
    07:00 -15°C° 0 mm 4 mps 769 mmHg 94%
    08:00 -15°C° 0 mm 4 mps 769 mmHg 94%
    09:00 -15°C° 0 mm 4 mps 769 mmHg 94%
    10:00 -14°C° 0.2 mm 4 mps 768 mmHg 95%
    11:00 -13°C° 0.2 mm 5 mps 768 mmHg 95%
    12:00 -13°C° 0.2 mm 5 mps 767 mmHg 95%
    13:00 -12°C° 0.5 mm 5 mps 767 mmHg 95%
    14:00 -11°C° 0.5 mm 4 mps 767 mmHg 95%
    15:00 -11°C° 0.5 mm 4 mps 766 mmHg 95%
    16:00 -11°C° 0.3 mm 4 mps 766 mmHg 95%
    17:00 -9°C° 0.3 mm 3 mps 766 mmHg 96%
    18:00 -9°C° 0.3 mm 3 mps 766 mmHg 96%
    19:00 -9°C° 0.1 mm 3 mps 766 mmHg 96%
    20:00 -9°C° 0.1 mm 3 mps 765 mmHg 96%
    21:00 -8°C° 0.1 mm 2 mps 765 mmHg 96%
    22:00 -7°C° 0.1 mm 2 mps 765 mmHg 97%
    23:00 -7°C° 0.1 mm 2 mps 765 mmHg 97%

    Tomorrow, 19 February, Monday

    Time Temperature Precipitation Wind Pressure Humidity
    00:00 -7°C° 0.1 mm 2 mps 765 mmHg 97%
    01:00 -6°C° 0.1 mm 2 mps 765 mmHg 97%
    02:00 -4°C° 0.1 mm 1 mps 764 mmHg 97%
    03:00 -4°C° 0.1 mm 1 mps 764 mmHg 97%
    04:00 -6°C° 0.1 mm 2 mps 764 mmHg 97%
    05:00 -5°C° 0.1 mm 2 mps 764 mmHg 97%
    06:00 -5°C° 0.1 mm 2 mps 764 mmHg 97%
    07:00 -5°C° 0.1 mm 2 mps 764 mmHg 97%
    08:00 -4°C° 0.1 mm 2 mps 764 mmHg 97%
    09:00 -4°C° 0.1 mm 2 mps 763 mmHg 97%
    10:00 -3°C° 0.2 mm 2 mps 763 mmHg 96%
    11:00 -3°C° 0.2 mm 2 mps 763 mmHg 95%
    12:00 -2°C° 0.2 mm 3 mps 763 mmHg 95%
    13:00 -2°C° 0.3 mm 2 mps 763 mmHg 95%
    14:00 -2°C° 0.3 mm 2 mps 762 mmHg 95%
    15:00 -2°C° 0.3 mm 2 mps 762 mmHg 95%
    16:00 -2°C° 0.3 mm 2 mps 762 mmHg 96%
    17:00 -2°C° 0.3 mm 2 mps 762 mmHg 96%
    18:00 -3°C° 0.3 mm 2 mps 762 mmHg 97%
    19:00 -3°C° 0.2 mm 2 mps 762 mmHg 97%
    20:00 -3°C° 0.2 mm 2 mps 762 mmHg 97%
    21:00 -4°C° 0.2 mm 2 mps 761 mmHg 96%
    22:00 -5°C° 0.1 mm 2 mps 761 mmHg 96%
    23:00 -6°C° 0.1 mm 2 mps 761 mmHg 95%

    Day after tomorrow, 20 February, Tuesday

    Time Temperature Precipitation Wind Pressure Humidity
    00:00 -8°C° 0.1 mm 3 mps 761 mmHg 95%
    01:00 -8°C° 0 mm 3 mps 761 mmHg 94%
    02:00 -8°C° 0 mm 2 mps 761 mmHg 94%
    03:00 -9°C° 0 mm 2 mps 761 mmHg 93%
    04:00 -9°C° 0 mm 2 mps 761 mmHg 93%
    05:00 -8°C° 0 mm 2 mps 761 mmHg 93%
    06:00 -8°C° 0 mm 2 mps 761 mmHg 94%
    07:00 -7°C° 0 mm 2 mps 761 mmHg 94%
    08:00 -6°C° 0 mm 2 mps 761 mmHg 94%
    09:00 -5°C° 0 mm 2 mps 761 mmHg 94%
    10:00 -6°C° 0 mm 3 mps 762 mmHg 93%
    11:00 -5°C° 0 mm 3 mps 762 mmHg 91%
    12:00 -4°C° 0 mm 4 mps 762 mmHg 89%
    13:00 -5°C° 0 mm 4 mps 762 mmHg 89%
    14:00 -5°C° 0 mm 4 mps 762 mmHg 88%
    15:00 -5°C° 0 mm 4 mps 762 mmHg 88%
    16:00 -7°C° 0 mm 4 mps 762 mmHg 88%
    17:00 -8°C° 0 mm 4 mps 762 mmHg 89%
    18:00 -7°C° 0 mm 3 mps 762 mmHg 89%
    19:00 -8°C° 0 mm 3 mps 762 mmHg 89%
    20:00 -8°C° 0 mm 3 mps 763 mmHg 90%
    21:00 -8°C° 0 mm 3 mps 763 mmHg 90%
    22:00 -9°C° 0 mm 3 mps 763 mmHg 91%
    23:00 -10°C° 0 mm 3 mps 763 mmHg 92%

    21 February, Wednesday

    Time Temperature Precipitation Wind Pressure Humidity
    00:00 -10°C° 0 mm 3 mps 763 mmHg 92%
    01:00 -12°C° 0 mm 3 mps 763 mmHg 92%
    02:00 -13°C° 0 mm 3 mps 763 mmHg 93%
    03:00 -14°C° 0 mm 3 mps 763 mmHg 93%
    04:00 -14°C° 0 mm 3 mps 763 mmHg 93%
    05:00 -14°C° 0 mm 3 mps 764 mmHg 93%
    06:00 -14°C° 0 mm 3 mps 764 mmHg 93%
    07:00 -14°C° 0 mm 3 mps 764 mmHg 93%
    08:00 -13°C° 0 mm 3 mps 764 mmHg 93%
    09:00 -12°C° 0 mm 3 mps 764 mmHg 93%
    10:00 -10°C° 0 mm 3 mps 764 mmHg 92%
    11:00 -9°C° 0 mm 3 mps 764 mmHg 91%
    12:00 -9°C° 0 mm 4 mps 764 mmHg 90%
    13:00 -9°C° 0 mm 4 mps 764 mmHg 89%
    14:00 -8°C° 0 mm 4 mps 764 mmHg 88%
    15:00 -8°C° 0 mm 4 mps 764 mmHg 87%
    16:00 -8°C° 0 mm 3 mps 764 mmHg 88%
    17:00 -8°C° 0 mm 3 mps 765 mmHg 89%
    18:00 -8°C° 0 mm 2 mps 765 mmHg 91%
    19:00 -8°C° 0 mm 2 mps 765 mmHg 91%
    20:00 -10°C° 0 mm 3 mps 766 mmHg 91%
    21:00 -12°C° 0 mm 3 mps 766 mmHg 92%
    22:00 -13°C° 0 mm 3 mps 766 mmHg 92%
    23:00 -14°C° 0 mm 2 mps 766 mmHg 92%

    22 February, Thursday

    Time Temperature Precipitation Wind Pressure Humidity
    00:00 -15°C° 0 mm 2 mps 767 mmHg 92%
    01:00 -16°C° 0 mm 2 mps 767 mmHg 92%
    02:00 -17°C° 0 mm 2 mps 767 mmHg 92%
    03:00 -17°C° 0 mm 2 mps 767 mmHg 93%
    04:00 -18°C° 0 mm 2 mps 767 mmHg 93%
    05:00 -18°C° 0 mm 2 mps 767 mmHg 94%
    06:00 -19°C° 0 mm 2 mps 767 mmHg 94%
    07:00 -18°C° 0 mm 2 mps 768 mmHg 94%
    08:00 -18°C° 0 mm 2 mps 768 mmHg 94%
    09:00 -17°C° 0 mm 2 mps 768 mmHg 94%
    10:00 -16°C° 0 mm 2 mps 768 mmHg 92%
    11:00 -15°C° 0 mm 2 mps 768 mmHg 91%
    12:00 -14°C° 0 mm 2 mps 768 mmHg 89%
    13:00 -14°C° 0 mm 2 mps 768 mmHg 90%
    14:00 -13°C° 0 mm 2 mps 768 mmHg 90%
    15:00 -13°C° 0 mm 2 mps 768 mmHg 91%
    16:00 -14°C° 0 mm 2 mps 768 mmHg 92%
    17:00 -16°C° 0 mm 2 mps 769 mmHg 93%
    18:00 -17°C° 0 mm 2 mps 769 mmHg 94%
    19:00 -18°C° 0 mm 2 mps 769 mmHg 94%
    20:00 -18°C° 0 mm 2 mps 769 mmHg 94%
    21:00 -19°C° 0 mm 2 mps 770 mmHg 94%
    22:00 -19°C° 0 mm 2 mps 770 mmHg 95%
    23:00 -17°C° 0 mm 1 mps 770 mmHg 95%

    23 February, Friday

    Time Temperature Precipitation Wind Pressure Humidity
    00:00 -18°C° 0 mm 1 mps 770 mmHg 95%
    01:00 -18°C° 0 mm 1 mps 770 mmHg 95%
    02:00 -18°C° 0 mm 1 mps 771 mmHg 95%
    03:00 -18°C° 0 mm 1 mps 771 mmHg 95%
    04:00 -19°C° 0 mm 1 mps 771 mmHg 96%
    05:00 -21°C° 0 mm 2 mps 771 mmHg 96%
    06:00 -21°C° 0 mm 2 mps 771 mmHg 96%
    07:00 -20°C° 0 mm 2 mps 771 mmHg 96%
    08:00 -20°C° 0 mm 2 mps 772 mmHg 95%
    09:00 -19°C° 0 mm 2 mps 772 mmHg 94%
    10:00 -18°C° 0 mm 2 mps 772 mmHg 93%
    11:00 -16°C° 0 mm 2 mps 772 mmHg 93%
    12:00 -15°C° 0 mm 2 mps 772 mmHg 92%
    13:00 -15°C° 0 mm 2 mps 772 mmHg 92%
    14:00 -15°C° 0 mm 2 mps 772 mmHg 93%
    15:00 -14°C° 0 mm 2 mps 772 mmHg 93%
    16:00 -16°C° 0 mm 2 mps 773 mmHg 94%
    17:00 -17°C° 0 mm 2 mps 773 mmHg 96%
    18:00 -18°C° 0 mm 2 mps 773 mmHg 97%
    19:00 -19°C° 0 mm 2 mps 773 mmHg 97%
    20:00 -19°C° 0 mm 2 mps 773 mmHg 97%
    21:00 -22°C° 0 mm 3 mps 773 mmHg 97%
    22:00 -22°C° 0 mm 3 mps 774 mmHg 97%
    23:00 -23°C° 0 mm 3 mps 774 mmHg 98%
    Show more